Location: Leimbach
(47.5611°N, 9.1881°E)
Time: 16:55:19
(UTC+00:00)

STARLINK-1321 - Pass Details

Date: 07 June 2020
Orbit: 378 x 380 km, 53.0° (Epoch: 13 July)

Event Time Altitude Azimuth Distance (km) Brightness Sun altitude
Rises 01:27:50 0° 297° (WNW) 2,262 6.7 -14.2°
Reaches altitude 10° 01:29:57 10° 304° (NW) 1,407 5.8 -14.0°
Maximum altitude 01:32:58 43° 18° (NNE) 548 4.2 -13.8°
Drops below altitude 10° 01:35:59 10° 92° (E) 1,402 6.1 -13.5°
Sets 01:38:05 0° 99° (E) 2,253 7.1 -13.3°
